FW5929 Weather Reports


Display with metric or nautical units.
time (UTC)temp
F
wind
direction
speed
MPH
gust
MPH
rain 1hr
in
rain 24hr
in
rain mn
in
humidity
%
barometer
mb
20260502211824 57 36 1.0 2.0 0.00 0.12 0.02 81 1014.9
20260502211322 57 36 1.0 1.0 0.00 0.12 0.02 81 1014.9
20260502210838 57 36 0.0 0.0 0.00 0.12 0.02 80 1014.8
20260502210333 58 36 0.0 2.0 0.00 0.12 0.02 79 1014.8
20260502205852 59 36 1.0 2.0 0.00 0.12 0.02 77 1014.8
20260502205329 59 36 0.0 1.0 0.00 0.12 0.02 76 1014.9
20260502204824 59 36 1.0 2.0 0.00 0.12 0.02 76 1014.8
20260502204321 59 36 1.0 2.0 0.00 0.12 0.02 76 1014.8
20260502203815 60 36 0.0 2.0 0.00 0.12 0.02 76 1014.8
20260502203313 60 36 1.0 2.0 0.00 0.12 0.02 75 1014.8
20260502202830 60 36 0.0 1.0 0.00 0.12 0.02 75 1014.8
20260502202328 61 36 0.0 2.0 0.00 0.12 0.02 73 1014.9
20260502201820 61 36 0.0 3.0 0.00 0.12 0.02 73 1014.9
20260502201320 61 36 2.0 3.0 0.00 0.12 0.02 73 1014.9
20260502200815 62 36 2.0 3.0 0.00 0.12 0.02 72 1014.9
20260502200333 62 268 1.0 2.0 0.00 0.12 0.02 72 1014.9
20260502195826 63 268 0.0 2.0 0.00 0.16 0.02 70 1014.9
20260502195323 63 268 0.0 7.0 0.00 0.16 0.02 68 1014.9
20260502194817 63 246 1.0 4.0 0.00 0.16 0.02 68 1014.9
20260502194336 63 242 2.0 4.0 0.00 0.16 0.02 67 1014.8
20260502193827 64 264 1.0 4.0 0.00 0.16 0.02 66 1014.8
20260502193322 64 266 0.0 4.0 0.00 0.16 0.02 65 1014.8
20260502192818 64 233 1.0 4.0 0.00 0.16 0.02 64 1014.9
20260502192314 64 229 1.0 5.0 0.00 0.16 0.02 65 1014.9
20260502191829 63 276 2.0 5.0 0.00 0.16 0.02 64 1014.8
20260502191327 63 181 1.0 3.0 0.00 0.16 0.02 68 1014.8
20260502190823 64 181 1.0 3.0 0.00 0.16 0.02 66 1014.7
20260502190321 64 181 1.0 3.0 0.00 0.16 0.02 65 1014.6
20260502185819 65 181 1.0 3.0 0.00 0.43 0.02 63 1014.6
20260502185317 65 181 1.0 4.0 0.00 0.43 0.02 62 1014.6
20260502184901 66 181 2.0 4.0 0.00 0.43 0.02 60 1014.6
20260502184338 67 181 1.0 7.0 0.00 0.43 0.02 59 1014.6
20260502183834 67 181 3.0 7.0 0.00 0.43 0.02 59 1014.6
20260502183332 67 198 3.0 5.0 0.00 0.43 0.02 59 1014.6
20260502182326 68 194 3.0 6.0 0.00 0.43 0.02 57 1014.6
20260502181840 68 194 2.0 6.0 0.00 0.43 0.02 58 1014.6
20260502181338 68 182 3.0 6.0 0.00 0.43 0.02 58 1014.5
20260502180854 69 174 2.0 9.0 0.00 0.43 0.02 55 1014.5
20260502180351 70 149 4.0 11.0 0.00 0.43 0.02 55 1014.5
20260502170327 72 169 3.0 8.0 0.00 0.43 0.02 48 1014.7
20260502164336 72 176 4.0 9.0 0.00 0.43 0.02 48 1014.8
20260502163852 73 192 3.0 11.0 0.00 0.43 0.02 44 1014.8
20260502163327 73 147 8.0 12.0 0.00 0.43 0.02 43 1015.0
20260502162823 73 173 8.0 14.0 0.00 0.43 0.02 42 1015.0
20260502162320 73 196 6.0 15.0 0.00 0.43 0.02 42 1015.0
20260502161816 73 164 8.0 14.0 0.00 0.43 0.02 41 1015.1
20260502161331 73 168 8.0 14.0 0.00 0.43 0.02 41 1015.1
20260502160827 73 169 6.0 13.0 0.00 0.43 0.02 40 1015.1
20260502160324 74 165 7.0 13.0 0.00 0.43 0.02 40 1015.2
20260502152335 74 156 4.0 12.0 0.00 0.43 0.02 58 1015.6
20260502151828 74 196 7.0 12.0 0.00 0.43 0.02 58 1015.6
20260502151327 74 182 4.0 13.0 0.00 0.43 0.02 60 1015.6
20260502150823 74 153 6.0 16.0 0.00 0.43 0.02 61 1015.8
20260502150322 73 153 5.0 14.0 0.00 0.43 0.02 61 1015.9
20260502130315 72 127 8.0 12.0 0.00 0.43 0.02 67 1017.4
20260502123316 73 187 8.0 12.0 0.00 0.43 0.02 64 1017.8
20260502122831 73 166 6.0 14.0 0.00 0.43 0.02 66 1017.8
20260502122327 75 192 7.0 14.0 0.00 0.43 0.02 67 1017.9
20260502121821 73 128 6.0 11.0 0.00 0.43 0.02 70 1017.9
20260502121321 72 92 5.0 11.0 0.00 0.43 0.02 67 1018.0
20260502120815 73 150 6.0 15.0 0.00 0.43 0.02 65 1018.1
20260502120333 73 173 9.0 15.0 0.00 0.43 0.02 63 1018.1
20260502115828 73 124 10.0 12.0 0.00 0.43 0.02 65 1018.3
20260502115327 73 185 7.0 10.0 0.00 0.43 0.02 69 1018.3
20260502114842 72 144 5.0 13.0 0.00 0.43 0.02 68 1018.4
20260502114320 72 189 10.0 13.0 0.00 0.43 0.02 67 1018.5
20260502113814 72 117 7.0 12.0 0.00 0.43 0.02 69 1018.6
20260502113333 73 109 9.0 12.0 0.00 0.43 0.02 70 1018.6
20260502112828 73 65 3.0 12.0 0.00 0.43 0.02 68 1018.7
20260502112325 72 101 5.0 10.0 0.00 0.43 0.02 69 1018.8
20260502111817 72 142 4.0 9.0 0.00 0.43 0.02 68 1018.9
20260502111341 71 167 3.0 13.0 0.00 0.43 0.02 68 1018.9
20260502110854 71 157 7.0 13.0 0.00 0.43 0.02 68 1019.0
20260502110333 71 72 5.0 9.0 0.00 0.43 0.02 69 1018.9
20260502105827 71 141 3.0 11.0 0.00 0.43 0.02 68 1019.0
20260502105326 71 185 6.0 11.0 0.00 0.43 0.02 69 1019.1
20260502104818 71 135 6.0 11.0 0.00 0.43 0.02 68 1019.2
20260502104315 72 167 4.0 10.0 0.00 0.43 0.02 69 1019.2
20260502103830 71 167 5.0 10.0 0.00 0.43 0.02 68 1019.2
20260502103330 71 205 6.0 9.0 0.00 0.43 0.02 71 1019.3
20260502102840 70 136 7.0 11.0 0.00 0.43 0.02 71 1019.4
20260502102337 70 136 7.0 11.0 0.00 0.43 0.02 70 1019.5
20260502101332 70 102 6.0 10.0 0.00 0.43 0.02 75 1019.5
20260502100827 70 161 3.0 11.0 0.00 0.43 0.02 74 1019.5
20260502100324 70 165 2.0 8.0 0.00 0.43 0.02 72 1019.6
20260502091329 67 107 4.0 9.0 0.00 0.43 0.02 78 1020.1
20260502090843 68 108 6.0 9.0 0.00 0.43 0.02 78 1020.2
20260502090322 68 181 2.0 6.0 0.00 0.43 0.02 78 1020.2
20260502071327 60 174 1.0 2.0 0.00 0.43 0.02 91 1020.5
20260502070822 60 174 1.0 2.0 0.00 0.43 0.02 92 1020.5
20260502070320 59 174 1.0 2.0 0.00 0.43 0.02 93 1020.6
20260502065816 59 173 0.0 1.0 0.00 0.43 0.02 94 1020.5
20260502065335 58 173 0.0 1.0 0.00 0.43 0.02 95 1020.6
20260502064828 58 173 0.0 1.0 0.00 0.43 0.02 95 1020.6
20260502064324 57 173 0.0 1.0 0.00 0.43 0.02 95 1020.6
20260502063819 57 173 1.0 1.0 0.00 0.43 0.02 95 1020.6
20260502063316 56 173 0.0 2.0 0.00 0.43 0.02 95 1020.6
20260502062831 56 173 1.0 2.0 0.00 0.43 0.02 95 1020.7
20260502062329 56 173 0.0 1.0 0.00 0.43 0.02 95 1020.6
20260502061843 56 173 0.0 1.0 0.00 0.43 0.02 95 1020.7
20260502061334 56 173 0.0 0.0 0.00 0.43 0.02 95 1020.7
20260502060849 55 173 0.0 2.0 0.00 0.43 0.02 95 1020.6
20260502060345 54 173 1.0 2.0 0.00 0.43 0.02 95 1020.6
20260502055817 54 172 1.0 1.0 0.00 0.43 0.02 95 1020.6
20260502055336 53 177 0.0 2.0 0.00 0.43 0.02 95 1020.6
20260502054852 52 177 0.0 2.0 0.00 0.43 0.02 94 1020.6
20260502054351 53 177 1.0 2.0 0.00 0.43 0.02 95 1020.6
20260502053826 53 177 1.0 2.0 0.00 0.43 0.02 95 1020.5
20260502053325 52 176 0.0 1.0 0.00 0.43 0.02 95 1020.6
20260502052819 52 176 0.0 1.0 0.00 0.43 0.02 95 1020.6
20260502052315 51 176 0.0 0.0 0.00 0.43 0.02 94 1020.6
20260502051830 51 176 0.0 0.0 0.00 0.43 0.02 94 1020.6
20260502051327 51 176 0.0 1.0 0.00 0.43 0.02 94 1020.6
20260502050844 51 175 0.0 1.0 0.00 0.43 0.02 94 1020.5
20260502050321 50 175 0.0 1.0 0.00 0.43 0.02 94 1020.5
20260502045832 51 175 0.0 0.0 0.00 0.43 0.02 94 1020.5
20260502045330 51 175 0.0 0.0 0.00 0.43 0.02 94 1020.6
20260502044824 51 175 0.0 0.0 0.00 0.43 0.02 94 1020.6
20260502044323 51 175 0.0 0.0 0.00 0.43 0.02 94 1020.6
20260502043818 52 175 0.0 1.0 0.00 0.43 0.02 94 1020.5
20260502043315 52 175 0.0 2.0 0.00 0.43 0.02 94 1020.5
20260502042832 51 175 1.0 2.0 0.00 0.43 0.02 94 1020.5
20260502042330 52 175 0.0 1.0 0.00 0.43 0.02 94 1020.6
20260502041825 52 175 0.0 1.0 0.00 0.43 0.02 94 1020.5
20260502041323 51 175 0.0 1.0 0.00 0.43 0.02 94 1020.5
20260502040817 52 175 0.0 1.0 0.00 0.43 0.02 94 1020.5
20260502040316 52 175 0.0 0.0 0.00 0.43 0.02 94 1020.5
20260502035832 52 175 0.0 1.0 0.00 0.43 0.02 94 1020.4
20260502035330 52 175 0.0 1.0 0.00 0.43 0.02 94 1020.6
20260502034846 53 175 1.0 1.0 0.00 0.43 0.02 94 1020.6
20260502034324 52 175 0.0 0.0 0.00 0.43 0.02 94 1020.6
20260502033818 52 175 0.0 0.0 0.00 0.43 0.02 94 1020.7
20260502033316 52 175 0.0 0.0 0.00 0.43 0.02 94 1020.7
20260502032831 52 175 0.0 0.0 0.00 0.43 0.02 94 1020.7
20260502032325 52 175 0.0 1.0 0.00 0.43 0.02 94 1020.8
20260502031840 52 175 0.0 1.0 0.00 0.43 0.02 94 1020.8
20260502031336 52 175 0.0 2.0 0.00 0.43 0.02 94 1020.8
20260502030849 52 174 1.0 2.0 0.00 0.43 0.02 94 1020.8
20260502030327 52 174 0.0 2.0 0.00 0.43 0.02 94 1020.8
20260502025821 51 174 1.0 2.0 0.00 0.43 0.02 93 1020.8
20260502025337 51 174 0.0 0.0 0.00 0.43 0.02 94 1020.8
20260502024853 51 174 0.0 0.0 0.00 0.43 0.02 94 1020.9
20260502024329 51 173 0.0 0.0 0.00 0.43 0.02 93 1021.0
20260502023824 51 174 0.0 0.0 0.00 0.43 0.02 93 1020.9
20260502023320 52 174 0.0 1.0 0.00 0.43 0.02 94 1021.0
20260502022818 52 174 0.0 1.0 0.00 0.43 0.02 93 1021.0
20260502022317 51 174 0.0 1.0 0.00 0.43 0.02 93 1021.1
20260502021831 52 174 0.0 1.0 0.00 0.43 0.02 93 1021.2
20260502021329 53 174 0.0 1.0 0.00 0.43 0.02 94 1021.2
20260502020824 52 173 0.0 1.0 0.00 0.43 0.02 93 1021.2
20260502020322 52 173 0.0 1.0 0.00 0.43 0.02 93 1021.2
20260502015815 52 173 0.0 1.0 0.00 0.43 0.02 93 1021.2
20260502015331 52 173 0.0 2.0 0.00 0.43 0.02 93 1021.2
20260502014827 53 173 0.0 2.0 0.00 0.43 0.02 93 1021.2
20260502014325 52 173 0.0 1.0 0.00 0.43 0.02 93 1021.2
20260502013820 52 173 0.0 3.0 0.00 0.43 0.02 92 1021.2
20260502013319 53 173 0.0 3.0 0.00 0.43 0.02 93 1021.3
20260502012836 53 173 0.0 2.0 0.04 0.43 0.02 92 1021.3
20260502012333 53 173 1.0 2.0 0.04 0.43 0.02 93 1021.2
20260502011828 53 173 0.0 1.0 0.04 0.43 0.02 93 1021.3
20260502011325 53 173 0.0 0.0 0.04 0.43 0.02 92 1021.3
20260502010818 53 173 0.0 0.0 0.04 0.43 0.02 92 1021.3
20260502010316 54 173 0.0 1.0 0.04 0.43 0.02 92 1021.3
20260502005830 54 172 0.0 1.0 0.04 0.43 0.02 92 1021.4
20260502005327 54 172 0.0 0.0 0.04 0.43 0.02 92 1021.4
20260502004822 54 173 0.0 0.0 0.04 0.43 0.02 92 1021.3
20260502004335 54 173 0.0 0.0 0.04 0.43 0.02 91 1021.3
20260502003830 55 173 0.0 0.0 0.04 0.43 0.02 91 1021.3
20260502003327 55 173 0.0 1.0 0.04 0.43 0.02 91 1021.3
20260502002821 55 173 1.0 2.0 0.00 0.39 0.01 91 1021.4
20260502002320 56 173 1.0 4.0 0.04 0.39 0.01 91 1021.4
20260502001835 56 173 2.0 4.0 0.04 0.39 0.01 91 1021.4
20260502001352 56 180 1.0 5.0 0.04 0.39 0.01 91 1021.5
20260502000828 56 156 1.0 5.0 0.04 0.39 0.01 91 1021.6
20260502000325 56 156 0.0 5.0 0.04 0.39 0.01 91 1021.7
20260501235821 56 157 2.0 6.0 0.04 0.39 0.01 91 1021.8
20260501235321 56 171 3.0 6.0 0.04 0.39 0.01 91 1022.0
20260501234817 56 194 2.0 5.0 0.04 0.39 0.01 90 1022.1
20260501234315 57 118 1.0 3.0 0.04 0.39 0.01 90 1022.0
20260501233857 57 118 0.0 3.0 0.04 0.39 0.01 90 1022.0
20260501233331 57 69 0.0 4.0 0.04 0.39 0.01 90 1022.0
20260501232826 56 69 0.0 4.0 0.04 0.39 0.01 91 1021.8
20260501232323 56 165 2.0 7.0 0.00 0.35 0.00 90 1021.9
20260501231816 56 153 3.0 8.0 0.00 0.35 0.00 91 1022.5
20260501231313 55 160 4.0 9.0 0.00 0.35 0.00 92 1022.7
20260501230828 55 145 6.0 9.0 0.00 0.35 0.00 91 1022.7
20260501230326 55 198 3.0 5.0 0.00 0.35 0.00 91 1022.4
20260501225818 55 213 4.0 5.0 0.00 0.35 0.00 91 1022.2
20260501225333 55 190 2.0 4.0 0.00 0.35 0.00 91 1022.0
20260501224828 55 177 2.0 3.0 0.00 0.35 0.00 90 1021.9
20260501224326 55 194 1.0 3.0 0.00 0.35 0.00 90 1021.9
20260501223822 55 76 1.0 2.0 0.04 0.35 0.00 90 1021.8
20260501223317 56 75 0.0 3.0 0.04 0.35 0.00 89 1021.7
20260501222831 56 75 1.0 3.0 0.04 0.35 0.00 89 1021.7
20260501222329 56 86 1.0 4.0 0.04 0.35 0.00 90 1021.7
20260501221824 56 143 1.0 3.0 0.04 0.35 0.00 89 1021.8
20260501221321 57 180 1.0 3.0 0.04 0.35 0.00 88 1021.8
20260501220816 57 81 1.0 2.0 0.04 0.35 0.00 87 1021.8
20260501220313 58 81 0.0 3.0 0.04 0.35 0.00 85 1021.8
20260501215827 58 81 1.0 3.0 0.04 0.35 0.07 86 1021.7
20260501215326 58 81 1.0 4.0 0.04 0.35 0.07 87 1021.7
20260501214821 58 81 2.0 3.0 0.04 0.35 0.07 86 1021.7
20260501214338 59 81 1.0 5.0 0.00 0.31 0.06 85 1021.8
20260501213836 59 81 2.0 5.0 0.00 0.31 0.06 83 1021.8
20260501213354 59 62 3.0 6.0 0.00 0.31 0.06 84 1021.8
20260501212827 59 65 3.0 8.0 0.00 0.31 0.06 84 1021.8
20260501212323 59 80 4.0 8.0 0.00 0.31 0.06 83 1021.8